Location: Gollag?dem
(17.0207°N, 80.7261°E)
Time: 17:15:00
(UTC+00:00)

CZ-4C R/B - Pass Details

Date: 03 August 2024
Orbit: 522 x 1469 km, 63.4° (Epoch: 11 September)

Event Time Altitude Azimuth Distance (km) Brightness Sun altitude
Rises 14:03:21 0° 355° (N) 4,143 6.2 -13.0°
Reaches altitude 10° 14:06:40 10° 9° (N) 3,308 5.4 -13.8°
Maximum altitude 14:13:11 25° 60° (ENE) 2,532 4.3 -15.2°
Enters shadow 14:17:04 19° 94° (E) 2,934 4.4 -16.0°
